Weather History for Crosby, ND

Change the Weather History Date:

Monday, August 4, 2014

  Actual Average (KISN) Record (KISN)
Temperature  
Mean Temperature 66 °F 71 °F  
Max Temperature 80 °F 86 °F 104 °F (1983)
Min Temperature 53 °F 57 °F 40 °F (2009)
Degree Days  
Heating Degree Days 0 1  
Month to date heating degree days 4  
Since 1 June heating degree days 148  
Since 1 July heating degree days 28  
Cooling Degree Days 2 7  
Month to date cooling degree days 28  
Year to date cooling degree days 291  
Since 1 June cooling degree days 278  
Growing Degree Days 16 (Base 50)    
Moisture  
Dew Point 61 °F    
Average Humidity 82    
Maximum Humidity 100    
Minimum Humidity 47    
Precipitation  
Precipitation 0.00 in 0.05 in 0.78 in (1951)
Month to date precipitation 0.21  
Year to date precipitation 9.88  
Sea Level Pressure  
Sea Level Pressure 30.12 in    
Wind  
Wind Speed 5 mph (SE)    
Max Wind Speed 12 mph    
Max Gust Speed 21 mph    
T = Trace of Precipitation, MM = Missing Value Source: NWS Daily Summary

Daily Weather History Graph

Daily Weather History Graph

Search for Another Location

Airport:

Trip Planner

Search our weather history database for the weather conditions in past years. The results will help you decide how hot, cold, wet, or windy it might be!

Date:

Astronomy

Aug. 04, 2014 Rise Set
Actual Time 6:30 AM CDT 9:27 PM CDT
Civil Twilight 5:53 AM CDT 10:03 PM CDT
Nautical Twilight 5:05 AM CDT 10:51 PM CDT
Astronomical Twilight 4:07 AM CDT 11:48 PM CDT
Moon 3:40 PM CDT (8/4) 12:43 AM CDT (8/4)
Length of Visible Light 16h 10m
Length of Day
14h 56m
First Quarter, 57% of the Moon is Illuminated
Aug 4
First Quarter
Aug 10
Full
Aug 17
Last Quarter
Aug 25
New
Sep 2
First Quarter

Hourly Weather History & Observations

Time (CDT) Temp. Heat Index Dew Point Humidity Pressure Visibility Wind Dir Wind Speed Gust Speed Precip Events Conditions
12:15 AM 60.8 °F - 60.8 °F 100% 30.13 in - SE 5.8 mph - N/A   Unknown
12:35 AM 62.6 °F - 62.6 °F 100% 30.14 in - ESE 4.6 mph - N/A   Unknown
12:55 AM 60.8 °F - 60.8 °F 100% 30.14 in - SSE 4.6 mph - N/A   Unknown
1:15 AM 59.0 °F - 59.0 °F 100% 30.15 in - Calm Calm - N/A   Unknown
1:35 AM 59.0 °F - 59.0 °F 100% 30.15 in - ENE 3.5 mph - N/A   Unknown
1:55 AM 59.0 °F - 59.0 °F 100% 30.15 in - Calm Calm - N/A   Unknown
2:15 AM 59.0 °F - 59.0 °F 100% 30.14 in - SSE 3.5 mph - N/A   Unknown
2:35 AM 59.0 °F - 59.0 °F 100% 30.14 in - South 5.8 mph - N/A   Unknown
2:55 AM 59.0 °F - 59.0 °F 100% 30.14 in - SSE 4.6 mph - N/A   Unknown
3:15 AM 57.2 °F - 57.2 °F 100% 30.14 in - SSE 3.5 mph - N/A   Unknown
3:35 AM 59.0 °F - 59.0 °F 100% 30.13 in - South 5.8 mph - N/A   Unknown
3:55 AM 60.8 °F - 60.8 °F 100% 30.13 in - SSE 8.1 mph - N/A   Unknown
4:15 AM 59.0 °F - 59.0 °F 100% 30.13 in - SSE 8.1 mph - N/A   Unknown
4:35 AM 59.0 °F - 59.0 °F 100% 30.13 in - South 6.9 mph - N/A   Unknown
4:55 AM 59.0 °F - 59.0 °F 100% 30.13 in - SSE 5.8 mph - N/A   Unknown
5:15 AM 57.2 °F - 57.2 °F 100% 30.13 in - ESE 3.5 mph - N/A   Unknown
5:35 AM 57.2 °F - 57.2 °F 100% 30.13 in - Calm Calm - N/A   Unknown
5:55 AM 53.6 °F - 53.6 °F 100% 30.13 in - NE 3.5 mph - N/A   Unknown
6:15 AM 53.6 °F - 53.6 °F 100% 30.14 in - Calm Calm - N/A   Unknown
6:35 AM 53.6 °F - 53.6 °F 100% 30.14 in - Calm Calm - N/A   Unknown
6:55 AM 53.6 °F - 53.6 °F 100% 30.13 in - South 5.8 mph - N/A   Unknown
7:15 AM 53.6 °F - 53.6 °F 100% 30.14 in - Calm Calm - N/A   Unknown
7:35 AM 53.6 °F - 53.6 °F 100% 30.14 in - NNE 3.5 mph - N/A   Unknown
7:55 AM 55.4 °F - 55.4 °F 100% 30.14 in - ENE 3.5 mph - N/A   Unknown
8:15 AM 57.2 °F - 57.2 °F 100% 30.14 in - Calm Calm - N/A   Unknown
8:35 AM 60.8 °F - 60.8 °F 100% 30.14 in - ESE 3.5 mph - N/A   Unknown
8:55 AM 64.4 °F - 64.4 °F 100% 30.14 in - SSE 9.2 mph - N/A   Unknown
9:15 AM 64.4 °F - 64.4 °F 100% 30.14 in - SSE 8.1 mph - N/A   Unknown
9:35 AM 66.2 °F - 64.4 °F 94% 30.14 in - SSE 8.1 mph - N/A   Unknown
9:55 AM 68.0 °F - 64.4 °F 88% 30.13 in - SE 9.2 mph - N/A   Unknown
10:15 AM 68.0 °F - 64.4 °F 88% 30.13 in - ESE 6.9 mph - N/A   Unknown
10:35 AM 69.8 °F - 64.4 °F 83% 30.13 in - South 6.9 mph - N/A   Clear
10:55 AM 71.6 °F - 64.4 °F 78% 30.12 in - SSE 6.9 mph - N/A   Clear
11:15 AM 71.6 °F - 64.4 °F 78% 30.12 in - SE 6.9 mph - N/A   Clear
11:35 AM 73.4 °F - 64.4 °F 73% 30.13 in - SSE 5.8 mph - N/A   Clear
11:55 AM 75.2 °F - 64.4 °F 69% 30.13 in - ESE 6.9 mph - N/A   Partly Cloudy
12:15 PM 75.2 °F - 62.6 °F 65% 30.13 in - SSE 5.8 mph - N/A   Clear
12:35 PM 75.2 °F - 62.6 °F 65% 30.13 in - South 6.9 mph - N/A   Clear
12:55 PM 77.0 °F - 62.6 °F 61% 30.13 in - South 5.8 mph - N/A   Partly Cloudy
1:15 PM 77.0 °F - 62.6 °F 61% 30.13 in - SE 4.6 mph - N/A   Clear
1:35 PM 77.0 °F - 60.8 °F 57% 30.12 in - East 5.8 mph - N/A   Clear
1:55 PM 77.0 °F - 60.8 °F 57% 30.12 in - ESE 8.1 mph - N/A   Scattered Clouds
2:15 PM 77.0 °F - 59.0 °F 54% 30.12 in - SE 8.1 mph - N/A   Scattered Clouds
2:35 PM 77.0 °F - 59.0 °F 54% 30.12 in - SE 4.6 mph - N/A   Clear
2:55 PM 78.8 °F - 59.0 °F 51% 30.12 in - SSE 5.8 mph - N/A   Clear
3:15 PM 78.8 °F - 60.8 °F 54% 30.11 in - SSE 6.9 mph - N/A   Partly Cloudy
3:35 PM 78.8 °F - 59.0 °F 51% 30.12 in - SSE 9.2 mph - N/A   Partly Cloudy
3:55 PM 78.8 °F - 59.0 °F 51% 30.11 in - ESE 9.2 mph - N/A   Scattered Clouds
4:15 PM 80.6 °F 81.1 °F 59.0 °F 48% 30.11 in - ESE 11.5 mph - N/A   Scattered Clouds
4:35 PM 78.8 °F - 59.0 °F 51% 30.11 in - SSE 6.9 mph - N/A   Partly Cloudy
4:55 PM 78.8 °F - 59.0 °F 51% 30.10 in - ESE 11.5 mph 20.7 mph N/A   Partly Cloudy
5:15 PM 78.8 °F - 59.0 °F 51% 30.10 in - SSE 11.5 mph - N/A   Partly Cloudy
5:35 PM 78.8 °F - 57.2 °F 47% 30.10 in - SE 4.6 mph - N/A   Clear
5:55 PM 78.8 °F - 59.0 °F 51% 30.10 in - ESE 9.2 mph - N/A   Partly Cloudy
6:15 PM 78.8 °F - 59.0 °F 51% 30.09 in - ESE 4.6 mph - N/A   Clear
6:35 PM 77.0 °F - 59.0 °F 54% 30.10 in - ESE 8.1 mph - N/A   Clear
6:55 PM 77.0 °F - 59.0 °F 54% 30.09 in - SE 5.8 mph - N/A   Clear
7:15 PM 75.2 °F - 62.6 °F 65% 30.09 in - ESE 8.1 mph - N/A   Clear
7:35 PM 75.2 °F - 62.6 °F 65% 30.09 in - SE 6.9 mph - N/A   Clear
7:55 PM 73.4 °F - 64.4 °F 73% 30.08 in - ESE 5.8 mph - N/A   Clear
8:15 PM 71.6 °F - 66.2 °F 83% 30.09 in - ESE 5.8 mph - N/A   Clear
8:35 PM 71.6 °F - 66.2 °F 83% 30.08 in - SE 6.9 mph - N/A   Clear
8:55 PM 68.0 °F - 66.2 °F 94% 30.09 in - SE 5.8 mph - N/A   Unknown
9:15 PM 68.0 °F - 66.2 °F 94% 30.09 in - SE 6.9 mph - N/A   Unknown
9:35 PM 66.2 °F - 66.2 °F 100% 30.10 in - SSE 6.9 mph - N/A   Unknown
9:55 PM 68.0 °F - 66.2 °F 94% 30.10 in - South 8.1 mph - N/A   Unknown
10:35 PM 66.2 °F - 66.2 °F 100% 30.10 in - South 10.4 mph - N/A   Unknown
10:55 PM 66.2 °F - 66.2 °F 100% 30.11 in - South 10.4 mph - N/A   Unknown
11:15 PM 64.4 °F - 64.4 °F 100% 30.11 in - South 8.1 mph - N/A   Unknown
11:35 PM 64.4 °F - 64.4 °F 100% 30.12 in - South 6.9 mph - N/A   Unknown
11:55 PM 62.6 °F - 62.6 °F 100% 30.11 in - South 9.2 mph - N/A   Unknown